Location: Asheville, NC
(35.6000°N, 82.5500°W)
Time: 20:34:08
(UTC-04:00)

PCSat - Pass Details

Date: 18 March 2018
Orbit: 784 x 796 km, 67.1° (Epoch: 20 June)

Event Time Altitude Azimuth Distance (km) Brightness Sun altitude
Rises 20:35:47 0° 174° (S) 3,253 12.6 -12.1°
Reaches altitude 10° 20:38:32 10° 162° (SSE) 2,330 11.7 -12.6°
Maximum altitude 20:42:52 26° 107° (ESE) 1,516 10.4 -13.5°
Drops below altitude 10° 20:47:13 10° 53° (NE) 2,347 11.6 -14.4°
Sets 20:49:59 0° 41° (NE) 3,282 12.5 -14.9°
